{"data":{"norad_id":60130,"epoch":"2026-05-25T00:08:37.854816Z","epoch_age_seconds":71149,"freshness":"FRESH","line1":"1 60130U 24118T   26145.00599369  .00000350  00000+0  23052-4 0  9998","line2":"2 60130  53.1603  32.0341 0001094  96.2411 263.8715 15.31700999107385","mean_motion":15.31700999,"eccentricity":0.0001094,"inclination_deg":53.1603,"raan_deg":32.0341,"arg_perigee_deg":96.2411,"mean_anomaly_deg":263.8715,"bstar":2.3052e-5,"rev_number":10738,"period_min":94.013126644177,"perigee_km":469.98775044276,"apogee_km":471.48628407774,"semimajor_km":6848.8740172602,"source":"CELESTRAK","updated_at":"2026-05-25T13:38:19.169267Z"}}